K9BM Weather Reports


time (UTC)temp
F
wind
direction
speed
knots
gust
knots
rain 1hr
in
rain 24hr
in
rain mn
in
humidity
%
barometer
mb
20260906013005 74 107 8.7 13.0 0.00 0.00 0.00 31 1008.9
20260906012005 75 95 8.7 13.0 0.00 0.00 0.00 30 1008.8
20260906011505 75 98 7.8 13.0 0.00 0.00 0.00 29 1008.8
20260906011005 76 85 8.7 13.9 0.00 0.00 0.00 28 1008.8
20260906010004 76 87 7.8 13.9 0.00 0.00 0.00 27 1008.8
20260906005505 76 84 10.4 13.9 0.00 0.00 0.00 27 1008.7
20260906005005 76 87 8.7 13.9 0.00 0.00 0.00 27 1008.7
20260906004505 77 63 7.8 13.0 0.00 0.00 0.00 27 1008.7
20260906004005 77 77 9.6 13.0 0.00 0.00 0.00 27 1008.6
20260906003005 77 71 9.6 14.8 0.00 0.00 0.00 26 1008.6
20260906002505 77 49 8.7 12.2 0.00 0.00 0.00 26 1008.6
20260906002006 78 57 7.8 12.2 0.00 0.00 0.00 26 1008.6
20260906001505 78 84 7.8 10.4 0.00 0.00 0.00 26 1008.6
20260906001005 78 88 7.8 13.9 0.00 0.00 0.00 26 1008.7
20260906000005 78 85 7.8 13.9 0.00 0.00 0.00 26 1008.7
20260905235505 78 89 9.6 13.0 0.00 0.00 0.00 26 1008.7
20260905235005 78 70 7.8 13.9 0.00 0.00 0.00 26 1008.7
20260905234505 78 108 10.4 15.6 0.00 0.00 0.00 26 1008.6
20260905234005 77 85 7.8 15.6 0.00 0.00 0.00 26 1008.7
20260905233505 78 59 6.1 12.2 0.00 0.00 0.00 25 1008.6
20260905233005 78 100 7.8 13.9 0.00 0.00 0.00 25 1008.6
20260905232005 79 106 11.3 13.9 0.00 0.00 0.00 25 1008.6
20260905231505 78 85 7.0 13.9 0.00 0.00 0.00 25 1008.6
20260905231005 78 105 11.3 13.9 0.00 0.00 0.00 25 1008.5
20260905230005 78 93 8.7 13.9 0.00 0.00 0.00 26 1008.6
20260905225505 79 72 4.3 12.2 0.00 0.00 0.00 25 1008.6
20260905225005 79 81 7.0 14.8 0.00 0.00 0.00 25 1008.6
20260905224004 78 94 10.4 14.8 0.00 0.00 0.00 26 1008.6
20260905223505 77 84 7.8 15.6 0.00 0.00 0.00 26 1008.6
20260905223005 77 79 4.3 15.6 0.00 0.00 0.00 26 1008.6
20260905222505 77 81 7.8 15.6 0.00 0.00 0.00 27 1008.6
20260905222005 76 80 7.0 12.2 0.00 0.00 0.00 27 1008.7
20260905221505 76 57 6.1 13.9 0.00 0.00 0.00 28 1008.8
20260905221005 75 69 8.7 13.9 0.00 0.00 0.00 28 1008.8
20260905220005 76 59 7.8 12.2 0.00 0.00 0.00 28 1008.8
20260905215505 75 75 8.7 12.2 0.00 0.00 0.00 29 1008.9
20260905215004 75 50 8.7 13.0 0.00 0.00 0.00 29 1009.0
20260905214505 75 79 7.8 13.0 0.00 0.00 0.00 29 1009.0
20260905214005 75 89 7.0 11.3 0.00 0.00 0.00 29 1008.9
20260905213505 75 80 9.6 13.0 0.00 0.00 0.00 29 1009.0
20260905213005 75 95 7.8 17.4 0.00 0.00 0.00 29 1008.9
20260905212505 75 97 12.2 17.4 0.00 0.00 0.00 29 1008.9
20260905212005 75 68 7.0 12.2 0.00 0.00 0.00 29 1009.0
20260905211505 75 35 5.2 14.8 0.00 0.00 0.00 29 1009.0
20260905211005 76 60 8.7 14.8 0.00 0.00 0.00 28 1008.9
20260905210004 76 85 10.4 14.8 0.00 0.00 0.00 28 1009.1
20260905205505 77 96 8.7 15.6 0.00 0.00 0.00 27 1009.1
20260905205005 78 103 8.7 15.6 0.00 0.00 0.00 27 1009.0
20260905204504 78 94 5.2 15.6 0.00 0.00 0.00 27 1008.9
20260905203505 76 86 10.4 15.6 0.00 0.00 0.00 29 1009.1
20260905202505 75 57 10.4 14.8 0.00 0.00 0.00 30 1009.2
20260905202005 76 55 10.4 14.8 0.00 0.00 0.00 29 1009.3
20260905201504 75 105 7.8 12.2 0.00 0.00 0.00 30 1009.4
20260905201005 75 53 7.0 13.9 0.00 0.00 0.00 30 1009.4
20260905200004 74 101 8.7 14.8 0.00 0.00 0.00 31 1009.4
20260905195505 73 57 8.7 17.4 0.00 0.00 0.00 31 1009.3
20260905195005 73 69 11.3 17.4 0.00 0.00 0.00 31 1009.4
20260905194505 73 78 10.4 17.4 0.00 0.00 0.00 31 1009.5
20260905194005 74 53 7.8 13.9 0.00 0.00 0.00 31 1009.5
20260905193505 74 53 7.8 14.8 0.00 0.00 0.00 30 1009.5
20260905192504 74 70 10.4 14.8 0.00 0.00 0.00 32 1009.6
20260905191504 72 76 7.8 17.4 0.00 0.00 0.00 32 1009.6
20260905191005 73 48 8.7 17.4 0.00 0.00 0.00 31 1009.5
20260905190005 72 55 5.2 13.9 0.00 0.00 0.00 32 1009.7
20260905185505 72 78 10.4 17.4 0.00 0.00 0.00 32 1009.8
20260905184505 72 63 7.8 14.8 0.00 0.00 0.00 32 1009.8
20260905184005 73 62 7.8 15.6 0.00 0.00 0.00 31 1009.9
20260905183505 73 95 11.3 15.6 0.00 0.00 0.00 32 1010.0
20260905183005 72 75 8.7 17.4 0.00 0.00 0.00 32 1010.0
20260905182504 72 86 8.7 17.4 0.00 0.00 0.00 32 1010.1
20260905182005 72 86 11.3 15.6 0.00 0.00 0.00 32 1010.1
20260905181505 72 98 6.1 17.4 0.00 0.00 0.00 33 1010.2
20260905181005 70 105 11.3 17.4 0.00 0.00 0.00 34 1010.1
20260905180004 71 74 10.4 14.8 0.00 0.00 0.00 33 1010.4
20260905175505 70 93 8.7 14.8 0.00 0.00 0.00 34 1010.4
20260905175004 70 77 9.6 14.8 0.00 0.00 0.00 34 1010.4
20260905174004 70 85 8.7 13.9 0.00 0.00 0.00 35 1010.4
20260905173505 69 85 8.7 13.9 0.00 0.00 0.00 36 1010.4
20260905173005 68 89 7.8 14.8 0.00 0.00 0.00 38 1010.4
20260905172004 67 52 7.0 14.8 0.00 0.00 0.00 38 1010.5
20260905171004 66 58 7.8 13.0 0.00 0.00 0.00 40 1010.6
20260905170005 66 53 8.7 13.0 0.00 0.00 0.00 39 1010.7
20260905165504 66 76 6.1 13.9 0.00 0.00 0.00 39 1010.7
20260905165004 66 77 7.8 13.9 0.00 0.00 0.00 40 1010.7
20260905164505 66 58 7.8 13.9 0.00 0.00 0.00 40 1010.5
20260905164004 65 55 6.1 13.0 0.00 0.00 0.00 42 1010.6
20260905163505 65 56 7.0 13.0 0.00 0.00 0.00 41 1010.6
20260905163005 65 52 5.2 13.0 0.00 0.00 0.00 42 1010.5
20260905162504 65 73 5.2 11.3 0.00 0.00 0.00 42 1010.5
20260905162004 64 36 2.6 11.3 0.00 0.00 0.00 43 1010.6
20260905160004 63 62 4.3 10.4 0.00 0.00 0.00 44 1010.5
20260905155505 63 43 4.3 10.4 0.00 0.00 0.00 46 1010.5
20260905154504 62 25 2.6 8.7 0.00 0.00 0.00 48 1010.5
20260905154005 62 42 4.3 8.7 0.00 0.00 0.00 47 1010.5
20260905153005 61 48 4.3 10.4 0.00 0.00 0.00 48 1010.6
20260905152504 61 32 6.1 10.4 0.00 0.00 0.00 49 1010.7
20260905152005 61 36 5.2 10.4 0.00 0.00 0.00 49 1010.6
20260905151005 61 37 5.2 10.4 0.00 0.00 0.00 49 1010.7
20260905145504 60 18 6.1 11.3 0.00 0.00 0.00 50 1010.6
20260905145004 60 29 6.1 10.4 0.00 0.00 0.00 50 1010.7
20260905144005 59 27 5.2 11.3 0.00 0.00 0.00 52 1010.6
20260905143504 58 36 5.2 8.7 0.00 0.00 0.00 52 1010.6
20260905143005 58 30 6.1 11.3 0.00 0.00 0.00 52 1010.5
20260905142504 58 24 6.1 11.3 0.00 0.00 0.00 52 1010.5
20260905142005 58 49 4.3 10.4 0.00 0.00 0.00 52 1010.5
20260905141504 57 36 5.2 8.7 0.00 0.00 0.00 53 1010.5
20260905140005 56 23 4.3 10.4 0.00 0.00 0.00 55 1010.3
20260905135508 56 17 4.3 7.8 0.00 0.00 0.00 56 1010.3
20260905135004 56 15 3.5 7.8 0.00 0.00 0.00 56 1010.3
20260905134004 55 23 4.3 8.7 0.00 0.00 0.00 56 1010.0
20260905133005 55 15 5.2 8.7 0.00 0.00 0.00 56 1010.0
20260905132504 55 29 4.3 7.8 0.00 0.00 0.00 57 1009.9
20260905131005 53 45 4.3 7.0 0.00 0.00 0.00 59 1009.6
20260905130004 53 25 4.3 7.8 0.00 0.00 0.00 58 1009.3
20260905125005 53 33 4.3 7.8 0.00 0.00 0.00 58 1009.2
20260905124505 54 37 4.3 8.7 0.00 0.00 0.00 58 1009.1
20260905124005 53 46 4.3 8.7 0.00 0.00 0.00 58 1009.1
20260905123504 53 57 3.5 7.0 0.00 0.00 0.00 58 1009.0
20260905123004 53 34 4.3 7.0 0.00 0.00 0.00 58 1008.8
20260905122504 54 31 3.5 7.8 0.00 0.00 0.00 57 1008.8
20260905121504 54 36 4.3 8.7 0.00 0.00 0.00 56 1008.6
20260905121005 55 33 4.3 8.7 0.00 0.00 0.00 55 1008.5
20260905120005 55 31 5.2 10.4 0.00 0.00 0.00 55 1008.3
20260905115004 55 29 4.3 10.4 0.00 0.00 0.00 54 1008.0
20260905114504 55 29 5.2 10.4 0.00 0.00 0.00 54 1007.9
20260905114005 55 29 6.1 10.4 0.00 0.00 0.00 54 1008.0
20260905113505 55 48 4.3 8.7 0.00 0.00 0.00 54 1008.0
20260905113004 55 31 4.3 8.7 0.00 0.00 0.00 54 1007.9
20260905112504 55 42 2.6 7.8 0.00 0.00 0.00 54 1007.9
20260905112005 55 44 3.5 5.2 0.00 0.00 0.00 54 1007.8
20260905111004 54 41 2.6 5.2 0.00 0.00 0.00 56 1007.4
20260905105505 55 29 1.7 5.2 0.00 0.00 0.00 55 1007.2
20260905104505 55 48 4.3 7.8 0.00 0.00 0.00 55 1007.0
20260905104005 55 27 4.3 7.8 0.00 0.00 0.00 54 1007.1
20260905103505 55 53 4.3 7.8 0.00 0.00 0.00 54 1007.0
20260905102505 56 43 5.2 8.7 0.00 0.00 0.00 53 1007.0
20260905102005 56 59 4.3 10.4 0.00 0.00 0.00 53 1007.1
20260905101504 56 66 4.3 10.4 0.00 0.00 0.00 53 1007.0
20260905101004 56 53 5.2 8.7 0.00 0.00 0.00 52 1006.8
20260905095505 57 78 4.3 10.4 0.00 0.00 0.00 51 1007.1
20260905094504 57 64 5.2 8.7 0.00 0.00 0.00 52 1007.1
20260905093505 57 98 5.2 7.0 0.00 0.00 0.00 52 1007.3
20260905093004 57 86 3.5 7.8 0.00 0.00 0.00 52 1007.3
20260905092504 57 78 5.2 7.8 0.00 0.00 0.00 53 1007.1
20260905092004 57 84 5.2 7.8 0.00 0.00 0.00 52 1007.1
20260905091504 57 76 5.2 7.0 0.00 0.00 0.00 52 1007.0
20260905091004 56 66 4.3 5.2 0.00 0.00 0.00 53 1006.9
20260905090005 57 53 2.6 7.8 0.00 0.00 0.00 52 1006.8
20260905085504 57 77 6.1 7.8 0.00 0.00 0.00 52 1006.8
20260905085004 57 84 6.1 7.8 0.00 0.00 0.00 52 1006.8
20260905084504 58 86 2.6 8.7 0.00 0.00 0.00 51 1006.8
20260905084005 58 56 5.2 10.4 0.00 0.00 0.00 50 1006.5
20260905083504 58 48 5.2 10.4 0.00 0.00 0.00 50 1006.4
20260905083004 58 58 6.1 10.4 0.00 0.00 0.00 50 1006.4
20260905082504 58 38 5.2 8.7 0.00 0.00 0.00 50 1006.2
20260905081505 59 51 4.3 7.8 0.00 0.00 0.00 49 1006.6
20260905081004 59 40 5.2 7.8 0.00 0.00 0.00 49 1006.5
20260905080005 59 29 5.2 7.8 0.00 0.00 0.00 49 1006.6
20260905075505 59 37 4.3 7.0 0.00 0.00 0.00 49 1006.7
20260905075004 59 24 2.6 8.7 0.00 0.00 0.00 49 1006.7
20260905074004 59 26 4.3 8.7 0.00 0.00 0.00 49 1006.6
20260905073505 59 36 4.3 6.1 0.00 0.00 0.00 49 1006.5
20260905073005 60 30 2.6 7.0 0.00 0.00 0.00 48 1006.5
20260905072504 60 26 2.6 7.0 0.00 0.00 0.00 48 1006.4
20260905071004 61 33 2.6 5.2 0.00 0.00 0.00 47 1006.4
20260905070004 62 27 2.6 5.2 0.00 0.00 0.00 46 1006.5
20260905065004 62 17 4.3 7.8 0.00 0.00 0.00 45 1006.5
20260905064504 62 26 2.6 7.8 0.00 0.00 0.00 45 1006.6
20260905064004 62 26 4.3 7.0 0.00 0.00 0.00 45 1006.7
20260905063504 62 20 2.6 7.0 0.00 0.00 0.00 46 1006.7
20260905063004 62 16 0.9 2.6 0.00 0.00 0.00 46 1006.8
20260905062504 62 15 1.7 2.6 0.00 0.00 0.00 45 1006.7
20260905062004 63 17 1.7 2.6 0.00 0.00 0.00 45 1006.5
20260905061504 63 31 0.9 6.1 0.00 0.00 0.00 45 1006.6
20260905061004 63 19 2.6 6.1 0.00 0.00 0.00 44 1006.4
20260905060004 63 21 1.7 4.3 0.00 0.00 0.00 44 1006.6
20260905055004 64 19 2.6 7.0 0.00 0.00 0.00 43 1006.5
20260905054504 64 28 3.5 8.7 0.00 0.00 0.00 43 1006.5
20260905054005 64 35 4.3 8.7 0.00 0.00 0.00 43 1006.5
20260905053504 64 17 2.6 10.4 0.00 0.00 0.00 43 1006.4
20260905053004 64 32 5.2 10.4 0.00 0.00 0.00 42 1006.3
20260905052504 64 24 4.3 8.7 0.00 0.00 0.00 42 1006.1
20260905052004 64 32 3.5 8.7 0.00 0.00 0.00 42 1006.0
20260905051504 64 26 1.7 7.0 0.00 0.00 0.00 42 1006.1
20260905051004 64 31 1.7 7.0 0.00 0.00 0.00 42 1006.0
20260905050004 65 67 2.6 5.2 0.00 0.00 0.00 41 1006.1
20260905045504 65 8 1.7 13.0 0.00 0.00 0.00 41 1005.9
20260905045005 65 338 3.5 13.0 0.00 0.00 0.00 41 1005.8
20260905044504 65 331 5.2 13.0 0.00 0.00 0.00 41 1005.7
20260905044004 65 346 2.6 7.0 0.00 0.00 0.00 41 1005.6
20260905043504 65 2 2.6 8.7 0.00 0.00 0.00 41 1005.6
20260905043004 65 10 4.3 8.7 0.00 0.00 0.00 41 1005.6
20260905042504 65 333 5.2 8.7 0.00 0.00 0.00 41 1005.5
20260905042004 65 343 5.2 7.8 0.00 0.00 0.00 41 1005.4
20260905041504 65 0 4.3 8.7 0.00 0.00 0.00 40 1005.5
20260905041004 66 25 2.6 10.4 0.00 0.00 0.00 40 1005.5
20260905040004 66 4 7.0 13.9 0.00 0.00 0.00 39 1005.5
20260905035004 67 13 7.8 13.9 0.00 0.00 0.00 38 1005.4
20260905034004 68 27 2.6 7.0 0.00 0.00 0.00 34 1005.1
20260905033004 68 310 2.6 5.2 0.00 0.00 0.00 32 1004.6
20260905031504 70 273 2.6 5.2 0.00 0.00 0.00 28 1004.4
20260905030004 71 253 1.7 7.0 0.00 0.00 0.00 25 1004.3
20260905025504 72 249 2.6 7.0 0.00 0.00 0.00 25 1004.1
20260905025004 72 253 4.3 7.8 0.00 0.00 0.00 24 1004.1
20260905024504 72 254 5.2 10.4 0.00 0.00 0.00 24 1003.9
20260905024004 73 253 5.2 10.4 0.00 0.00 0.00 24 1003.8
20260905023505 73 258 7.0 10.4 0.00 0.00 0.00 23 1003.7
20260905023004 73 264 7.8 10.4 0.00 0.00 0.00 23 1003.6
20260905022504 73 273 7.8 10.4 0.00 0.00 0.00 23 1003.4
20260905022004 74 273 7.8 10.4 0.00 0.00 0.00 23 1003.4
20260905021504 74 272 7.8 10.4 0.00 0.00 0.00 23 1003.3
20260905021005 74 272 7.0 10.4 0.00 0.00 0.00 23 1003.4
20260905020004 75 272 6.1 10.4 0.00 0.00 0.00 23 1003.2
20260905015004 75 271 6.1 11.3 0.00 0.00 0.00 22 1003.1
20260905014504 76 274 6.1 11.3 0.00 0.00 0.00 22 1003.0
20260905014004 76 275 7.8 11.3 0.00 0.00 0.00 21 1003.0
20260905013504 77 275 6.1 10.4 0.00 0.00 0.00 21 1002.9